Minneapolis Flying Cloud, MN

5:13 PM CST on December 11, 2019 (GMT -0600)
Flying Cloud

Weather History for KFCM - July, 2019

Change the Weather History Date:

Sunday, July 21, 2019

  Actual Average Record
Temperature  
Mean Temperature 71 °F -  
Max Temperature 81 °F 80 °F 95 °F (2016)
Min Temperature 62 °F 61 °F 53 °F (2000)
Cooling Degree Days 6    
Growing Degree Days 21 (Base 50)    
Moisture  
Dew Point 58 °F    
Average Humidity 64    
Maximum Humidity 90    
Minimum Humidity 43    
Precipitation  
Precipitation 0.00 in - - ()
Sea Level Pressure  
Sea Level Pressure 30.05 in    
Wind  
Wind Speed 5 mph (North)    
Max Wind Speed 13 mph    
Max Gust Speed 20 mph    
Visibility 10 miles    
Events      
Averages and records for this station are not official NWS values.
T = Trace of Precipitation, MM = Missing Value Source: NWS Daily Summary

Daily Weather History Graph

Daily Weather History Graph

Search for Another Location

Airport or City:

Astronomy

Jul. 21, 2019 Rise Set
Actual Time 5:47 AM CDT 8:52 PM CDT
Civil Twilight 5:12 AM CDT 9:27 PM CDT
Nautical Twilight 4:27 AM CDT 10:12 PM CDT
Astronomical Twilight 3:33 AM CDT 11:05 PM CDT
Moon 11:36 PM CDT (7/21) 10:17 AM CDT (7/21)
Length of Visible Light 16h 14m
Length of Day
15h 04m
Waning Gibbous, 80% of the Moon is Illuminated
Jul 21
Waning Gibbous
Jul 24
Last Quarter
Jul 31
New
Aug 7
First Quarter
Aug 15
Full

Hourly Weather History & Observations

Time (CDT) Temp. Heat Index Dew Point Humidity Pressure Visibility Wind Dir Wind Speed Gust Speed Precip Events Conditions
12:53 AM 63.0 °F - 59.0 °F 87% 29.99 in 10.0 mi North 4.6 mph - N/A   Clear
1:53 AM 63.0 °F - 59.0 °F 87% 30.00 in 10.0 mi Calm Calm - N/A   Clear
2:53 AM 63.0 °F - 60.1 °F 90% 29.99 in 10.0 mi North 3.5 mph - N/A   Clear
3:53 AM 63.0 °F - 60.1 °F 90% 30.01 in 10.0 mi Calm Calm - N/A   Clear
4:53 AM 63.0 °F - 60.1 °F 90% 30.01 in 10.0 mi NNW 3.5 mph - N/A   Clear
5:53 AM 62.1 °F - 59.0 °F 90% 30.01 in 10.0 mi Calm Calm - N/A   Clear
6:53 AM 64.9 °F - 60.1 °F 84% 30.02 in 10.0 mi North 3.5 mph - N/A   Clear
7:53 AM 70.0 °F - 60.1 °F 71% 30.06 in 10.0 mi NNW 3.5 mph - N/A   Clear
8:53 AM 72.0 °F - 60.1 °F 66% 30.06 in 10.0 mi NNE 3.5 mph - N/A   Clear
9:53 AM 73.9 °F - 60.1 °F 62% 30.06 in 10.0 mi North 4.6 mph - N/A   Clear
10:53 AM 77.0 °F - 57.0 °F 50% 30.07 in 10.0 mi NE 3.5 mph - N/A   Clear
11:53 AM 78.1 °F - 55.0 °F 45% 30.09 in 10.0 mi Variable 3.5 mph - N/A   Clear
12:53 PM 80.1 °F 80.2 °F 55.9 °F 43% 30.08 in 10.0 mi NW 8.1 mph - N/A   Clear
1:53 PM 80.1 °F 80.4 °F 57.0 °F 45% 30.07 in 10.0 mi North 8.1 mph - N/A   Mostly Cloudy
2:53 PM 79.0 °F - 55.9 °F 45% 30.06 in 10.0 mi NNW 8.1 mph 19.6 mph N/A   Clear
3:53 PM 80.1 °F 80.6 °F 57.9 °F 47% 30.06 in 10.0 mi NNW 12.7 mph 18.4 mph N/A   Scattered Clouds
4:53 PM 80.1 °F 80.4 °F 57.0 °F 45% 30.05 in 10.0 mi North 11.5 mph - N/A   Clear
5:53 PM 78.1 °F - 55.9 °F 46% 30.06 in 10.0 mi NNW 9.2 mph - N/A   Clear
6:53 PM 75.9 °F - 55.9 °F 50% 30.07 in 10.0 mi NW 6.9 mph - N/A   Scattered Clouds
7:53 PM 75.9 °F - 57.0 °F 52% 30.08 in 10.0 mi NNW 5.8 mph - N/A   Scattered Clouds
8:53 PM 73.9 °F - 57.9 °F 57% 30.09 in 10.0 mi North 6.9 mph - N/A   Mostly Cloudy
9:53 PM 72.0 °F - 57.0 °F 59% 30.10 in 10.0 mi North 9.2 mph - N/A   Mostly Cloudy
10:53 PM 70.0 °F - 55.9 °F 61% 30.10 in 10.0 mi North 9.2 mph - N/A   Clear
11:53 PM 68.0 °F - 55.9 °F 65% 30.11 in 10.0 mi North 8.1 mph - N/A   Clear